Weather History for KMIE - February, 2014

Change the Weather History Date:

Sunday, February 23, 2014

  Actual Average Record
Temperature  
Mean Temperature 29 °F 32 °F  
Max Temperature 35 °F 40 °F 67 °F (1983)
Min Temperature 23 °F 23 °F -3 °F (2015)
Degree Days  
Heating Degree Days 36 33  
Month to date heating degree days 1009 828  
Since 1 July heating degree days 4675 4221  
Cooling Degree Days 0 0  
Month to date cooling degree days 0 0  
Year to date cooling degree days 0 0  
Moisture  
Dew Point 24 °F    
Average Humidity 79    
Maximum Humidity 100    
Minimum Humidity 58    
Precipitation  
Precipitation 0.01 in 0.08 in 2.20 in (1975)
Month to date precipitation 2.33 1.89  
Year to date precipitation 2.96 4.12  
Sea Level Pressure  
Sea Level Pressure 30.11 in    
Wind  
Wind Speed 9 mph (NW)    
Max Wind Speed 17 mph    
Max Gust Speed 21 mph    
Visibility 8 miles    
Events Snow    
T = Trace of Precipitation, MM = Missing Value Source: NWS Daily Summary

Daily Weather History Graph

Daily Weather History Graph

Search for Another Location

Airport or City:

Trip Planner

Search our weather history database for the weather conditions in past years. The results will help you decide how hot, cold, wet, or windy it might be!

Date:

Astronomy

Feb. 23, 2014 Rise Set
Actual Time 7:23 AM EST 6:26 PM EST
Civil Twilight 6:56 AM EST 6:53 PM EST
Nautical Twilight 6:24 AM EST 7:25 PM EST
Astronomical Twilight 5:53 AM EST 7:57 PM EST
Moon 2:21 AM EST 12:28 PM EST
Length of Visible Light 11h 57m
Length of Day
11h 02m
Last Quarter, 39% of the Moon is Illuminated
Feb 23
Last Quarter
Mar 1
New
Mar 8
First Quarter
Mar 16
Full
Mar 23
Last Quarter

Hourly Weather History & Observations

Time (EST) Temp. Windchill Dew Point Humidity Pressure Visibility Wind Dir Wind Speed Gust Speed Precip Events Conditions
12:53 AM 34.0 °F 29.8 °F 32.0 °F 92% 30.04 in 10.0 mi NNW 4.6 mph - N/A   Overcast
1:53 AM 33.1 °F 25.5 °F 30.0 °F 89% 30.05 in 6.0 mi North 9.2 mph - 0.00 in   Overcast
2:26 AM 32.0 °F - 30.9 °F 96% 30.03 in 2.0 mi Calm Calm - 0.00 in Snow Light Snow
2:35 AM 32.0 °F - 30.9 °F 96% 30.03 in 1.5 mi Calm Calm - 0.00 in Snow Light Snow
2:53 AM 32.0 °F - 30.0 °F 92% 30.04 in 1.5 mi Calm Calm - 0.01 in Snow Light Snow
2:57 AM 32.0 °F - 30.0 °F 92% 30.02 in 2.0 mi Calm Calm - 0.00 in Snow Light Snow
3:11 AM 32.0 °F - 30.9 °F 96% 30.02 in 3.0 mi Calm Calm - 0.00 in Snow Light Snow
3:53 AM 32.0 °F - 30.9 °F 96% 30.03 in 6.0 mi Calm Calm - 0.00 in   Overcast
4:03 AM 32.0 °F - 30.0 °F 92% 30.02 in 6.0 mi Calm Calm - N/A   Overcast
4:10 AM 32.0 °F 28.7 °F 30.0 °F 92% 30.03 in 5.0 mi NNW 3.5 mph - N/A   Overcast
4:21 AM 32.0 °F 25.6 °F 30.9 °F 96% 30.03 in 4.0 mi NNW 6.9 mph - N/A   Overcast
4:34 AM 32.0 °F 25.6 °F 30.0 °F 92% 30.04 in 5.0 mi NNW 6.9 mph - N/A   Overcast
4:53 AM 30.9 °F 24.3 °F 30.0 °F 96% 30.06 in 5.0 mi NW 6.9 mph - N/A   Overcast
5:41 AM 30.9 °F 24.3 °F 28.9 °F 92% 30.06 in 8.0 mi NW 6.9 mph - N/A   Overcast
5:53 AM 30.0 °F 24.1 °F 28.0 °F 92% 30.07 in 10.0 mi NW 5.8 mph - N/A   Overcast
6:53 AM 30.0 °F 20.5 °F 25.0 °F 82% 30.11 in 10.0 mi NNW 11.5 mph - N/A   Overcast
7:53 AM 28.9 °F 19.2 °F 24.1 °F 82% 30.12 in 10.0 mi NW 11.5 mph - N/A   Overcast
8:53 AM 28.0 °F 18.6 °F 21.9 °F 78% 30.17 in 10.0 mi NW 10.4 mph - N/A   Overcast
9:53 AM 28.0 °F 20.0 °F 19.9 °F 72% 30.16 in 10.0 mi NW 8.1 mph - N/A   Overcast
10:53 AM 28.9 °F 22.8 °F 19.9 °F 69% 30.14 in 10.0 mi NW 5.8 mph - N/A   Scattered Clouds
11:53 AM 28.9 °F 18.6 °F 19.0 °F 67% 30.15 in 10.0 mi NNW 12.7 mph - N/A   Partly Cloudy
12:53 PM 30.0 °F 20.0 °F 19.9 °F 66% 30.14 in 10.0 mi WNW 12.7 mph - N/A   Clear
1:53 PM 30.0 °F 20.0 °F 21.0 °F 69% 30.13 in 10.0 mi NW 12.7 mph - N/A   Clear
2:53 PM 28.9 °F 18.6 °F 18.0 °F 64% 30.15 in 10.0 mi WNW 12.7 mph - N/A   Clear
3:53 PM 28.9 °F 17.7 °F 18.0 °F 64% 30.16 in 10.0 mi WNW 15.0 mph - N/A   Clear
4:53 PM 28.9 °F 18.6 °F 16.0 °F 58% 30.16 in 10.0 mi WNW 12.7 mph - N/A   Clear
5:53 PM 28.0 °F 17.5 °F 15.1 °F 58% 30.16 in 10.0 mi NW 12.7 mph - N/A   Clear
6:53 PM 26.1 °F 16.8 °F 16.0 °F 66% 30.19 in 10.0 mi WNW 9.2 mph - N/A   Clear
7:53 PM 25.0 °F 18.1 °F 16.0 °F 69% 30.19 in 10.0 mi WNW 5.8 mph - N/A   Clear
8:53 PM 25.0 °F 17.1 °F 15.1 °F 66% 30.20 in 10.0 mi West 6.9 mph - N/A   Clear
9:53 PM 24.1 °F 14.4 °F 15.1 °F 69% 30.21 in 10.0 mi West 9.2 mph - N/A   Clear
10:53 PM 24.1 °F 14.4 °F 15.1 °F 69% 30.21 in 10.0 mi West 9.2 mph - N/A   Clear
11:53 PM 23.0 °F 10.6 °F 14.0 °F 68% 30.20 in 10.0 mi West 13.8 mph - N/A   Clear